     2              OBSERVATION DATA    GPS                 RINEX VERSION / TYPE
teqc 1997Jul24 19970902 21:07:49UTC                         PGM / RUN BY / DATE
                                                            COMMENT
BIT 2 OF LLI FLAGS DATA COLLECTED UNDER A-S CONDITION       COMMENT
BIT 2 OF LLI FLAGS DATA COLLECTED UNDER A-S CONDITION       COMMENT
Original Marker Name: OCOT.55477                            COMMENT
Campaign Name: Salt. Tr. Crust. Monit. May-Jun 1986         COMMENT
4-Character Station Name: OCOT                              COMMENT
6-Character Antenna Code: TI4100                            COMMENT
Vertical Measurement Point: PAE                             COMMENT
Vertical Offset to Rinex Ref. Point: 0.0000                 COMMENT
Radial Measurement Point: RRP                               COMMENT
Radial Offset to Rinex Ref. Point: 0.0000                   COMMENT
Antenna Height from Field Measurement: 1.3555 m             COMMENT
Original XYZ: -1931684.6495 -3847031.5788 2718520.6537      COMMENT
New XYZ position is based on association with SCEC monument COMMENT
E1C8V7N3+0011. Position of that monument is believed to be  COMMENT
valid to within 1 m horizontally; vertical accuracy         COMMENT
should be no worse than 3-times this value.                 COMMENT
                                                            COMMENT
Revised Rinex header created by UCSD GPS archive for        COMMENT
GSAC on 10-Apr-1999 (1999:100) 05:13:20 GMT                 COMMENT
For assistance contact dagnew@ucsd.edu or hjohnson@ucsd.edu COMMENT
                                                            COMMENT
OCOTILLO NCMN 1982                                          MARKER NAME
05 NATIONAL GEODETIC SURVEY                                 OBSERVER / AGENCY
UT-33 TI 4100 1.0                                           REC # / TYPE / VERS
4091 TI 4100                                                ANT # / TYPE
 -2335602.0000 -4832244.0000  3434393.0000                  APPROX POSITION XYZ
        1.3555        0.0000        0.0000                  ANTENNA: DELTA H/E/N
     1     1     0                                          WAVELENGTH FACT L1/2
     4    P1    P2    L1    L2                              # / TYPES OF OBSERV
     6                                                      INTERVAL
  1986     6    14     4    30   11.000000                  TIME OF FIRST OBS
  1986     6    14     4    47   59.000000                  TIME OF LAST OBS
     0                                                      # OF SATELLITES
                                                            END OF HEADER
 86  6 14  4 30 11.0800000  0  3G12G13G 7
  21655470.561    21655474.152    46016098.288 9 -62532356.289 9
  22175015.109    22175016.372    74610511.402 9 -84449402.092 8
  24367100.176    24367100.773    15554967.671 9 -40473011.035 8
 86  6 14  4 30 17.0800000  0  3G12G13G 7
  21658176.906    21658179.738    46030317.207 9 -62521276.618 8
  22176793.668    22176794.690    74619856.103 9 -84442120.507 8
  24366410.910    24366412.004    15551344.466 9 -40475834.304 8
 86  6 14  4 30 23.0800000  0  3G12G13G 7
  21660886.733    21660889.506    46044555.417 9 -62510181.911 8
  22178572.704    22178573.208    74629202.218 9 -84434837.828 8
  24365725.685    24365726.380    15547744.124 9 -40478639.765 8
 86  6 14  4 30 29.0800000  0  3G12G13G 7
  21663600.079    21663602.471    46058812.778 9 -62499072.280 8
  22180351.422    22180353.215    74638549.528 9 -84427554.214 9
  24365043.965    24365044.690    15544164.527 9 -40481429.062 7
 86  6 14  4 30 35.0800000  0  3G12G13G 7
  21666316.516    21666319.429    46073089.310 8 -62487947.709 8
  22182130.341    22182130.214    74647898.162 9 -84420269.557 8
  24364366.955    24364367.651    15540605.262 9 -40484202.518 9
 86  6 14  4 30 41.0800000  0  3G12G13G 7
  21669036.011    21669039.912    46087384.912 9 -62476808.274 8
  22183909.287    22183910.366    74657248.051 9 -84412983.929 8
  24363693.635    24363694.845    15537069.149 9 -40486957.931 9
 86  6 14  4 30 47.0800000  0  3G12G13G 7
  21671760.263    21671763.143    46101699.681 9 -62465653.914 9
  22185689.136    22185689.569    74666599.156 9 -84405697.346 8
                  24363027.469                   -40489689.946 8
 86  6 14  4 30 53.0800000  0  3G12G13G 7
  21674488.302    21674491.796    46116033.589 9 -62454484.636 8
  22187468.013    22187468.803    74675951.461 9 -84398409.842 8
  24362367.536    24362366.707    15497377.591 9 -40492393.818 7
 86  6 14  4 30 59.0800000  0  3G12G13G 7
  21677219.107    21677222.791    46130386.570 9 -62443300.506 8
  22189247.560    22189249.410    74685305.063 9 -84391121.320 8
  24361711.940    24361714.136    15493944.926 9 -40495068.622 8
 86  6 14  4 31  5.0800000  0  3G12G13G 7
  21679955.215    21679957.201    46144758.529 9 -62432101.584 8
  22191028.038    22191028.959    74694659.898 9 -84383831.833 9
  24361065.279    24361067.545    15490545.423 9 -40497717.190 9
 86  6 14  4 31 11.0800000  0  3G12G13G 7
  21682692.155    21682695.527    46159149.502 9 -62420887.836 8
  22192808.630    22192809.939    74704016.092 9 -84376541.303 8
  24360424.755    24360425.994    15487175.581 9 -40500343.038 9
 86  6 14  4 31 17.0800000  0  3G12G13G 7
  21685435.076    21685437.238    46173559.404 8 -62409659.347 8
  22194588.594    22194591.232    74713373.426 9 -84369249.871 8
  24359788.039    24359789.277    15483830.845 9 -40502949.325 9
 86  6 14  4 31 23.0800000  0  3G12G13G 7
  21688180.877    21688182.374    46187988.239 9 -62398416.102 8
  22196369.974    22196372.154    74722731.921 9 -84361957.525 9
  24359156.366    24359157.667    15480508.905 9 -40505537.863 8
 86  6 14  4 31 29.0800000  0  3G12G13G 7
  21690930.245    21690933.005    46202436.061 9 -62387158.041 8
  22198151.270    22198153.047    74732091.692 9 -84354664.198 9
  24358527.413    24358529.458    15477207.655 9 -40508110.260 9
 86  6 14  4 31 35.0800000  0  3G12G13G 7
  21693683.774    21693685.669    46216902.891 9 -62375885.195 9
  22199932.363    22199933.110    74741452.799 9 -84347369.827 8
  24357903.246    24357905.529    15473926.845 9 -40510666.737 8
 86  6 14  4 31 41.0800000  0  3G12G13G 7
  21696440.309    21696442.249    46231388.631 8 -62364597.611 8
  22201714.788    22201715.122    74750815.220 9 -84340074.430 8
  24357283.463    24357285.252    15470669.593 9 -40513204.849 9
 86  6 14  4 31 47.0800000  0  3G12G13G 7
  21699201.143    21699203.433    46245893.291 8 -62353295.273 8
  22203496.209    22203497.817    74760178.945 9 -84332778.028 8
                  24356671.009                   -40515719.238 7
 86  6 14  4 31 53.0800000  0  3G12G13G 7
  21701963.808    21701966.129    46260416.717 9 -62341978.322 6
  22205278.305    22205279.340    74769543.950 9 -84325480.610 9
  24356062.603    24356065.935    15431257.279 9 -40518205.350 8
 86  6 14  4 31 59.0800000  0  3G12G13G 7
  21704730.941    21704734.283    46274958.873 9 -62330646.765 8
  22207061.231    22207061.064    74778910.087 9 -84318182.315 8
  24355462.832    24355463.941    15428103.782 9 -40520662.623 9
 86  6 14  4 32  5.0800000  0  3G12G13G 7
  21707502.114    21707504.687    46289519.933 9 -62319300.486 9
  22208843.384    22208843.874    74788277.494 9 -84310883.038 9
  24354868.748    24354870.294    15424983.999 9 -40523093.619 8
 86  6 14  4 32 11.0800000  0  3G12G13G 7
  21710276.765    21710279.945    46304099.646 9 -62307939.685 8
  22210625.593    22210626.971    74797646.061 9 -84303582.846 8
  24354281.077    24354282.615    15421893.193 9 -40525502.029 8
 86  6 14  4 32 17.0800000  0  3G12G13G 7
  21713054.676    21713056.988    46318698.156 9 -62296564.221 8
  22212409.406    22212409.441    74807015.819 9 -84296281.729 8
  24353697.842    24353698.336    15418827.473 9 -40527890.909 8
 86  6 14  4 32 23.0800000  0  3G12G13G 7
  21715836.154    21715839.161    46333315.476 9 -62285174.109 8
  22214191.088    22214193.136    74816386.942 9 -84288979.549 8
  24353118.254    24353119.064    15415784.588 9 -40530261.991 9
 86  6 14  4 32 29.0800000  0  3G12G13G 7
  21718621.896    21718622.999    46347951.462 9 -62273769.433 9
  22215975.455    22215976.520    74825759.368 9 -84281676.372 8
  24352543.747    24352544.078    15412762.356 9 -40532616.966 9
 86  6 14  4 32 35.0800000  0  3G12G13G 7
  21721410.510    21721411.995    46362606.128 9 -62262350.213 8
  22217758.596    22217760.449    74835132.932 9 -84274372.293 8
  24351972.352    24351972.544    15409760.707 9 -40534955.917 8
 86  6 14  4 32 41.0800000  0  3G12G13G 7
  21724202.351    21724204.896    46377279.428 9 -62250916.486 8
  22219542.552    22219544.774    74844507.725 9 -84267067.260 9
  24351405.643    24351406.972    15406782.762 9 -40537276.386 8
 86  6 14  4 32 47.0800000  0  3G12G13G 7
  21726998.442    21726999.551    46391971.327 9 -62239468.257 9
  22221327.108    22221328.759    74853883.728 9 -84259761.287 9
                  24350845.867                   -40539572.994 8
 86  6 14  4 32 53.0800000  0  3G12G13G 7
  21729797.817    21729800.506    46406681.848 9 -62228005.518 8
  22223111.565    22223112.687    74863261.028 9 -84252454.308 8
  24350291.757    24350293.094    15367647.232 9 -40541841.084 8
 86  6 14  4 32 59.0800000  0  3G12G13G 7
  21732600.358    21732603.158    46421411.047 8 -62216528.227 8
  22224897.079    22224898.045    74872639.496 9 -84245146.393 9
  24349744.388    24349744.709    15364773.617 9 -40544080.269 8
 86  6 14  4 33  5.0800000  0  3G12G13G 7
  21735406.076    21735410.322    46436158.829 9 -62205036.443 8
  22226681.193    22226681.913    74882019.213 9 -84237837.529 8
  24349204.258    24349204.985    15361934.040 9 -40546293.308 8
 86  6 14  4 33 11.0800000  0  3G12G13G 7
  21738216.539    21738219.557    46450925.227 8 -62193530.164 9
  22228466.708    22228467.673    74891400.185 9 -84230527.675 8
  24348669.579    24348668.297    15359122.832 9 -40548483.864 8
 86  6 14  4 33 17.0800000  0  3G12G13G 7
  21741030.249    21741032.090    46465710.118 9 -62182009.482 8
  22230251.137    22230253.146    74900782.300 9 -84223216.940 8
  24348138.867    24348140.273    15356336.553 9 -40550654.983 9
 86  6 14  4 33 23.0800000  0  3G12G13G 7
  21743847.388    21743849.815    46480513.460 9 -62170474.414 8
  22232037.210    22232038.787    74910165.628 9 -84215905.251 8
  24347612.951    24347612.832    15353572.787 9 -40552808.566 9
 86  6 14  4 33 29.0800000  0  3G12G13G 7
  21746666.525    21746670.463    46495335.201 9 -62158925.014 8
  22233823.355    22233823.974    74919550.077 9 -84208592.702 9
  24347090.767    24347091.354    15350829.726 9 -40554946.018 8
 86  6 14  4 33 35.0800000  0  3G12G13G 7
  21749490.830    21749495.712    46510175.398 9 -62147361.222 8
  22235609.757    22235610.079    74928935.717 9 -84201279.205 9
  24346573.289    24346573.067    15348107.391 9 -40557067.309 8
 86  6 14  4 33 41.0800000  0  3G12G13G 7
  21752319.106    21752321.740    46525034.009 9 -62135783.090 9
  22237396.031    22237396.209    74938322.612 9 -84193964.747 8
  24346059.044    24346060.675    15345409.077 9 -40559169.900 8
 86  6 14  4 33 47.0800000  0  3G12G13G 7
  21755148.986    21755153.023    46539910.999 9 -62124190.632 8
  22239182.361    22239182.909    74947710.698 9 -84186649.345 8
                  24345552.020                   -40561248.253 8
 86  6 14  4 33 53.0800000  0  3G12G13G 7
  21757984.550    21757987.976    46554806.330 9 -62112583.879 9
  22240968.249    22240969.556    74957100.019 8 -84179333.006 8
  24345049.945    24345051.964    15306551.386 9 -40563297.980 8
 86  6 14  4 33 59.0800000  0  3G12G13G 7
  21760822.997    21760824.602    46569719.913 9 -62100962.908 8
  22242755.611    22242758.033    74966490.477 9 -84172015.758 8
  24344556.965    24344557.643    15303957.887 9 -40565318.872 9
 86  6 14  4 34  5.0800000  0  3G12G13G 7
  21763663.689    21763666.873    46584651.783 9 -62089327.680 8
  22244543.372    22244544.195    74975882.176 9 -84164697.558 8
  24344069.907    24344070.780    15301397.774 9 -40567313.780 8
 86  6 14  4 34 11.0800000  0  3G12G13G 7
  21766508.356    21766510.659    46599601.905 9 -62077678.244 9
  22246329.746    22246331.642    74985275.063 9 -84157378.422 8
  24343588.103    24343589.247    15298866.279 9 -40569286.371 9
 86  6 14  4 34 17.0800000  0  3G12G13G 7
  21769355.721    21769360.481    46614570.404 8 -62066014.488 8
  22248118.339    22248117.940    74994669.187 9 -84150058.323 8
  24343111.728    24343112.028    15296359.813 9 -40571239.460 9
 86  6 14  4 34 23.0800000  0  3G12G13G 7
  21772208.306    21772212.368    46629557.141 9 -62054336.515 8
  22249906.085    22249907.766    75004064.514 9 -84142737.299 8
  24342639.230    24342639.065    15293875.856 9 -40573175.009 8
 86  6 14  4 34 29.0800000  0  3G12G13G 7
  21775063.812    21775067.159    46644562.104 9 -62042644.315 8
  22251694.233    22251694.610    75013461.025 9 -84135415.334 8
  24342170.353    24342170.347    15291412.663 9 -40575094.383 8
 86  6 14  4 34 35.0800000  0  3G12G13G 7
  21777922.887    21777926.438    46659585.269 9 -62030937.970 8
  22253481.867    22253484.377    75022858.713 9 -84128092.461 9
  24341705.432    24341706.497    15288970.199 9 -40576997.592 8
 86  6 14  4 34 41.0800000  0  3G12G13G 7
  21780784.515    21780789.086    46674626.639 9 -62019217.422 9
  22255270.674    22255271.679    75032257.599 9 -84120768.653 8
  24341245.249    24341246.028    15286551.931 9 -40578881.967 7
 86  6 14  4 34 47.0800000  0  3G12G13G 7
  21783650.797    21783653.925    46689686.136 8 -62007482.761 9
  22257058.877    22257060.585    75041657.625 9 -84113443.959 8
                  24340791.219                   -40580741.969 8
 86  6 14  4 34 53.0800000  0  3G12G13G 7
  21786519.615    21786523.504    46704763.774 8 -61995733.954 8
  22258848.730    22258849.980    75051058.810 9 -84106118.357 8
  24340343.368    24340344.200    15247750.362 9 -40582573.189 9
 86  6 14  4 34 59.0800000  0  3G12G13G 7
  21789392.365    21789396.036    46719859.533 9 -61983971.021 8
  22260638.107    22260639.517    75060461.168 9 -84098791.844 9
  24339903.423    24339904.528    15245437.354 9 -40584375.523 9
 86  6 14  4 35  5.0800000  0  3G12G13G 7
  21792269.254    21792270.802    46734973.344 9 -61972194.034 8
  22262427.729    22262429.052    75069864.719 9 -84091464.400 8
  24339469.425    24339470.807    15243156.923 9 -40586152.082 9
 86  6 14  4 35 11.0800000  0  3G12G13G 7
  21795149.260    21795151.268    46750105.315 9 -61960402.893 8
  22264217.910    22264218.358    75079269.670 9 -84084135.875 8
  24339041.030    24339041.745    15240905.673 9 -40587906.305 9
 86  6 14  4 35 17.0800000  0  3G12G13G 7
  21798032.104    21798033.842    46765255.235 9 -61948597.755 8
  22266006.788    22266008.753    75088675.738 9 -84076806.462 9
  24338617.628    24338617.808    15238679.387 9 -40589641.071 8
 86  6 14  4 35 23.0800000  0  3G12G13G 7
  21800918.877    21800919.560    46780423.133 9 -61936778.621 8
  22267796.697    22267798.234    75098082.948 9 -84069476.174 8
  24338198.368    24338198.961    15236475.562 9 -40591358.328 8
 86  6 14  4 35 29.0800000  0  3G12G13G 7
  21803807.560    21803810.137    46795608.911 9 -61924945.556 7
  22269587.577    22269588.486    75107491.333 9 -84062144.963 8
  24337783.924    24337784.080    15234292.356 9 -40593059.526 8
 86  6 14  4 35 35.0800000  0  3G12G13G 7
  21806701.359    21806703.574    46810812.646 8 -61913098.485 8
  22271378.058    22271378.962    75116900.907 9 -84054812.816 8
  24337372.004    24337372.319    15232129.925 9 -40594744.534 8
 86  6 14  4 35 41.0800000  0  3G12G13G 7
  21809597.805    21809599.722    46826034.307 8 -61901237.458 8
  22273168.124    22273169.878    75126311.618 9 -84047479.793 8
  24336964.972    24336964.521    15229992.008 9 -40596410.451 9
 86  6 14  4 35 47.0800000  0  3G12G13G 7
  21812498.318    21812500.538    46841273.911 9 -61889362.456 9
  22274960.049    22274961.127    75135723.492 9 -84040145.865 7
                  24336564.571                   -40598051.708 8
 86  6 14  4 35 53.0800000  0  3G12G13G 7
  21815401.642    21815403.644    46856531.423 8 -61877473.480 8
  22276750.716    22276752.181    75145136.550 9 -84032811.016 8
  24336170.768    24336171.219    15191468.863 9 -40599664.181 8
 86  6 14  4 35 59.0800000  0  3G12G13G 7
  21818308.498    21818310.337    46871806.788 9 -61865570.593 7
  22278542.383    22278543.203    75154550.791 9 -84025475.224 7
  24335783.346    24335784.389    15189436.491 9 -40601247.864 9
 86  6 14  4 36  5.0800000  0  3G12G13G 7
  21821218.305    21821220.201    46887099.983 8 -61853653.816 8
  22280334.126    22280334.860    75163966.236 9 -84018138.513 9
  24335402.312    24335404.466    15187437.712 9 -40602805.738 9
 86  6 14  4 36 11.0800000  0  3G12G13G 7
  21824131.673    21824133.148    46902410.973 8 -61841723.181 8
  22282125.291    22282127.486    75173382.803 9 -84010800.944 8
  24335027.962    24335029.980    15185466.817 9 -40604341.511 9
 86  6 14  4 36 17.0800000  0  3G12G13G 7
  21827048.482    21827051.299    46917739.670 9 -61829778.744 8
  22283917.047    22283919.341    75182800.506 8 -84003462.447 8
  24334657.425    24334658.884    15183520.769 9 -40605857.896 8
 86  6 14  4 36 23.0800000  0  3G12G13G 7
  21829968.826    21829970.710    46933086.091 9 -61817820.506 8
  22285710.602    22285711.309    75192219.409 9 -83996123.045 8
  24334291.539    24334292.390    15181597.235 9 -40607356.761 8
 86  6 14  4 36 29.0800000  0  3G12G13G 7
  21832892.871    21832896.122    46948450.246 9 -61805848.426 8
  22287502.370    22287504.594    75201639.558 9 -83988782.670 8
  24333929.459    24333930.296    15179694.313 9 -40608839.555 8
 86  6 14  4 36 35.0800000  0  3G12G13G 7
  21835820.352    21835822.687    46963832.158 9 -61793862.541 8
  22289295.010    22289297.706    75211060.930 9 -83981441.339 8
  24333571.699    24333573.159    15177812.248 9 -40610306.095 8
 86  6 14  4 36 41.0800000  0  3G12G13G 7
  21838750.950    21838752.473    46979231.702 8 -61781862.890 7
  22291088.741    22291089.476    75220483.503 9 -83974099.079 8
                  24333219.838                   -40611753.228 8
 86  6 14  4 36 47.0800000  0  3G12G13G 7
  21841684.009    21841686.815    46994648.827 9 -61769849.550 8
  22292881.740    22292883.019    75229907.168 9 -83966755.956 9
  24332886.510    24332871.829    15139502.374 9 -40613175.733 8
 86  6 14  4 36 53.0800000  0  3G12G13G 7
  21844620.669    21844623.920    47010083.553 9 -61757822.493 8
  22294675.355    22294677.935    75239331.906 9 -83959411.998 9
  24332529.380    24332531.213    15137713.857 9 -40614569.141 8
 86  6 14  4 36 59.0800000  0  3G12G13G 7
  21847562.257    21847564.275    47025535.879 9 -61745781.727 9
  22296469.386    22296471.077    75248757.702 9 -83952067.214 8
  24332196.849    24332197.943    15135962.387 9 -40615933.921 7
 86  6 14  4 37  5.0800000  0  3G12G13G 7
  21850505.649    21850507.790    47041005.730 9 -61733727.294 8
  22298263.284    22298264.678    75258184.603 9 -83944721.574 8
  24331869.467    24331871.214    15134243.376 9 -40617273.010 8
 86  6 14  4 37 11.0800000  0  3G12G13G 7
  21853453.650    21853454.981    47056493.184 9 -61721659.158 8
  22300057.628    22300057.962    75267612.725 9 -83937374.993 9
  24331548.113    24331548.557    15132553.216 9 -40618590.012 8
 86  6 14  4 37 17.0800000  0  3G12G13G 7
  21856404.151    21856405.438    47071998.182 9 -61709577.343 8
  22301852.373    22301853.049    75277042.043 9 -83930027.464 8
  24331231.041    24331231.299    15130887.840 9 -40619887.714 8
 86  6 14  4 37 23.0800000  0  3G12G13G 7
  21859357.641    21859359.928    47087520.831 9 -61697481.764 8
  22303646.860    22303647.565    75286472.603 9 -83922678.983 8
  24330918.278    24330919.409    15129244.804 9 -40621168.002 8
 86  6 14  4 37 29.0800000  0  3G12G13G 7
  21862313.844    21862317.274    47103060.908 9 -61685372.621 9
  22305441.276    22305442.140    75295904.306 9 -83915329.604 8
  24330609.578    24330610.915    15127622.332 9 -40622432.262 9
 86  6 14  4 37 35.0800000  0  3G12G13G 7
  21865276.050    21865277.685    47118618.357 9 -61673249.942 8
  22307236.107    22307237.945    75305337.086 9 -83907979.382 8
  24330304.664    24330305.415    15126020.648 9 -40623680.319 8
 86  6 14  4 37 41.0800000  0  3G12G13G 7
  21868238.654    21868242.044    47134193.192 9 -61661113.712 8
  22309030.837    22309032.461    75314771.073 9 -83900628.227 8
                  24330005.663                   -40624908.844 7
 86  6 14  4 37 47.0800000  0  3G12G13G 7
  21871205.951    21871207.840    47149785.433 9 -61648963.925 9
  22310825.768    22310827.860    75324206.164 9 -83893276.205 8
  24329674.957    24329711.603    15087990.898 9 -40626112.364 8
 86  6 14  4 37 53.0800000  0  3G12G13G 7
  21874176.560    21874177.304    47165395.095 9 -61636800.543 8
  22312622.087    22312623.551    75333642.446 8 -83885923.265 8
  24329423.752    24329423.815    15086483.865 9 -40627286.759 8
 86  6 14  4 37 59.0800000  0  3G12G13G 7
  21877150.411    21877151.895    47181022.099 9 -61624623.654 9
  22314418.248    22314419.124    75343079.765 9 -83878569.505 8
  24329144.085    24329144.272    15085013.887 9 -40628432.603 8
 86  6 14  4 38  5.0800000  0  3G12G13G 7
  21880127.131    21880129.275    47196666.389 9 -61612433.301 8
  22316213.781    22316215.503    75352518.235 9 -83871214.849 9
  24328870.134    24328870.542    15083576.200 9 -40629552.880 8
 86  6 14  4 38 11.0800000  0  3G12G13G 7
  21883107.395    21883110.002    47212327.966 9 -61600229.478 8
  22318010.299    22318011.019    75361957.781 9 -83863859.362 9
  24328601.729    24328603.290    15082166.651 9 -40630651.228 8
 86  6 14  4 38 17.0800000  0  3G12G13G 7
  21886091.005    21886093.064    47228006.822 9 -61588012.188 7
  22319806.888    22319807.594    75371398.491 9 -83856502.971 8
  24328338.705    24328338.614    15080781.632 9 -40631730.451 9
 86  6 14  4 38 23.0800000  0  3G12G13G 7
  21889077.525    21889080.043    47243703.030 9 -61575781.380 9
  22321604.010    22321605.259    75380840.476 9 -83849145.568 8
  24328080.188    24328079.058    15079419.007 9 -40632792.240 8
 86  6 14  4 38 29.0800000  0  3G12G13G 7
  21892067.793    21892070.922    47259416.509 9 -61563537.120 9
  22323401.486    22323401.462    75390283.629 9 -83841787.267 8
  24327824.597    24327825.224    15078077.067 9 -40633837.906 8
 86  6 14  4 38 35.0800000  0  3G12G13G 7
  21895061.107    21895063.419    47275147.128 9 -61551279.498 8
  22325198.192    22325199.671    75399727.973 9 -83834428.039 8
  24327573.077    24327572.519    15076756.115 9 -40634867.226 8
 86  6 14  4 38 41.0800000  0  3G12G13G 7
  21898057.766    21898061.404    47290894.935 9 -61539008.486 9
  22326995.725    22326996.933    75409173.413 9 -83827067.952 8
  24327326.365    24327326.837    15075460.361 9 -40635876.904 8
 86  6 14  4 38 47.0800000  0  3G12G13G 7
  21901058.463    21901060.381    47306659.820 9 -61526724.160 8
  22328792.618    22328793.339    75418619.985 9 -83819706.993 9
                  24327085.110                   -40636861.276 8
 86  6 14  4 38 53.0800000  0  3G12G13G 7
  21904061.391    21904063.162    47322441.795 9 -61514426.518 8
  22330590.540    22330591.947    75428067.640 9 -83812345.181 7
  24326852.979    24326853.193    15037770.552 9 -40637816.619 8
 86  6 14  4 38 59.0800000  0  3G12G13G 7
  21907068.288    21907069.408    47338240.838 9 -61502115.573 8
  22332388.561    22332389.811    75437516.467 9 -83804982.462 8
  24326626.772    24326625.663    15036581.211 9 -40638743.369 8
 86  6 14  4 39  5.0800000  0  3G12G13G 7
  21910078.702    21910078.963    47354056.975 9 -61489791.315 9
  22334187.098    22334188.361    75446966.501 9 -83797618.795 8
  24326406.552    24326407.259    15035424.044 9 -40639644.676 9
 86  6 14  4 39 11.0800000  0  3G12G13G 7
  21913090.434    21913092.511    47369890.177 9 -61477453.756 9
  22335985.177    22335986.540    75456417.705 9 -83790254.227 8
  24326192.064    24326191.784    15034295.432 9 -40640524.112 8
 86  6 14  4 39 17.0800000  0  3G12G13G 7
  21916105.857    21916108.015    47385740.425 9 -61465102.911 9
  22337783.797    22337784.004    75465870.013 9 -83782888.785 8
  24325981.977    24325982.340    15033191.388 9 -40641384.418 8
 86  6 14  4 39 23.0800000  0  3G12G13G 7
  21919125.549    21919128.157    47401607.712 9 -61452738.806 9
  22339582.879    22339584.041    75475323.511 9 -83775522.419 8
  24325776.897    24325777.769    15032109.571 9 -40642227.390 8
 86  6 14  4 39 29.0800000  0  3G12G13G 7
  21922149.529    21922151.204    47417491.952 9 -61440361.474 8
  22341382.202    22341383.081    75484778.098 9 -83768155.208 9
  24325574.342    24325574.636    15031048.312 9 -40643054.346 9
 86  6 14  4 39 35.0800000  0  3G12G13G 7
  21925175.447    21925176.931    47433393.140 9 -61427970.939 8
  22343182.299    22343182.576    75494233.724 9 -83760787.186 8
  24325376.554    24325377.528    15030008.172 9 -40643864.845 8
 86  6 14  4 39 41.0800000  0  3G12G13G 7
  21928204.148    21928204.441    47449311.203 9 -61415567.268 9
  22344980.935    22344983.159    75503690.446 8 -83753418.312 8
                  24325183.807                   -40644655.377 8
 86  6 14  4 39 47.0800000  0  3G12G13G 7
  21931237.242    21931238.142    47465246.209 9 -61403150.370 8
  22346781.433    22346782.824    75513148.317 9 -83746048.539 8
  24325012.090    24324997.409    14992529.773 9 -40645420.591 8
 86  6 14  4 39 53.0800000  0  3G12G13G 7
  21934272.203    21934273.641    47481198.118 9 -61390720.306 9
  22348580.985    22348582.235    75522607.325 9 -83738677.874 8
  24324816.534    24324817.442    14991585.178 9 -40646156.513 8
 86  6 14  4 39 59.0800000  0  3G12G13G 7
  21937310.141    21937312.054    47497166.857 9 -61378277.143 9
  22350381.282    22350382.875    75532067.512 9 -83731306.301 9
  24324643.820    24324644.674    14990677.181 9 -40646864.052 9
 86  6 14  4 40  5.0800000  0  3G12G13G 7
  21940352.447    21940354.349    47513152.454 9 -61365820.840 7
  22352182.294    22352182.429    75541528.855 9 -83723933.832 8
  24324477.140    24324477.325    14989801.788 9 -40647546.185 9
 86  6 14  4 40 11.0800000  0  3G12G13G 7
  21943398.226    21943399.185    47529154.849 9 -61353351.457 8
  22353982.076    22353984.125    75550991.365 9 -83716560.437 8
  24324314.923    24324317.089    14988954.250 9 -40648206.593 9
 86  6 14  4 40 17.0800000  0  3G12G13G 7
  21946446.248    21946447.992    47545174.012 9 -61340868.988 9
  22355783.159    22355784.939    75560454.939 9 -83709186.215 8
  24324158.695    24324159.883    14988131.143 9 -40648847.994 9
 86  6 14  4 40 23.0800000  0  3G12G13G 7
  21949497.225    21949499.521    47561209.867 9 -61328373.526 9
  22357584.485    22357585.035    75569919.610 9 -83701811.140 9
  24324006.036    24324007.553    14987330.115 9 -40649472.172 8
 86  6 14  4 40 29.0800000  0  3G12G13G 7
  21952552.888    21952555.682    47577262.502 9 -61315864.975 9
  22359385.614    22359387.279    75579385.404 9 -83694435.205 8
  24323857.829    24323859.102    14986549.707 9 -40650080.277 8
 86  6 14  4 40 35.0800000  0  3G12G13G 7
  21955610.416    21955611.828    47593331.817 9 -61303343.446 8
  22361186.524    22361188.404    75588852.347 9 -83687058.376 8
  24323713.198    24323714.924    14985790.450 9 -40650671.905 8
 86  6 14  4 40 41.0800000  0  3G12G13G 7
  21958669.875    21958672.547    47609417.755 9 -61290808.951 9
  22362989.067    22362989.849    75598320.412 9 -83679680.644 8
                  24323573.460                   -40651243.475 7
 86  6 14  4 40 47.0800000  0  3G12G13G 7
  21961734.867    21961737.392    47625520.285 9 -61278261.539 9
  22364791.240    22364791.488    75607789.613 9 -83672302.051 9
  24323434.670    24323442.010    14948597.815 9 -40651789.434 8
 86  6 14  4 40 53.0800000  0  3G12G13G 7
  21964802.108    21964803.734    47641639.411 9 -61265701.178 8
  22366592.824    22366593.645    75617259.969 9 -83664922.543 8
  24323313.449    24323315.918    14947934.869 9 -40652305.988 8
 86  6 14  4 40 59.0800000  0  3G12G13G 7
  21967873.513    21967874.341    47657775.070 9 -61253127.936 8
  22368395.196    22368396.288    75626731.491 9 -83657542.149 8
  24323194.181    24323195.671    14947308.771 9 -40652794.252 7
 86  6 14  4 41  5.0800000  0  3G12G13G 7
  21970947.183    21970949.675    47673927.273 9 -61240541.814 8
  22370198.197    22370199.788    75636204.111 9 -83650160.880 8
  24323082.039    24323082.797    14946714.469 9 -40653257.336 9
 86  6 14  4 41 11.0800000  0  3G12G13G 7
  21974024.502    21974025.375    47690095.991 9 -61227942.809 8
  22372000.853    22372002.148    75645677.857 9 -83642778.740 8
  24322973.439    24322974.848    14946147.911 9 -40653698.808 9
 86  6 14  4 41 17.0800000  0  3G12G13G 7
  21977104.431    21977106.504    47706281.219 9 -61215330.944 8
  22373803.943    22373805.019    75655152.843 8 -83635395.634 8
  24322870.019    24322870.186    14945605.707 9 -40654121.303 9
 86  6 14  4 41 23.0800000  0  3G12G13G 7
  21980187.224    21980189.027    47722482.939 9 -61202706.243 8
  22375607.429    22375607.748    75664628.989 8 -83628011.617 8
  24322772.043    24322772.243    14945085.479 9 -40654526.684 8
 86  6 14  4 41 29.0800000  0  3G12G13G 7
  21983273.383    21983275.221    47738701.178 9 -61190068.661 9
  22377409.887    22377412.136    75674106.196 9 -83620626.777 9
  24322676.321    24322676.092    14944585.759 9 -40654916.075 8
 86  6 14  4 41 35.0800000  0  3G12G13G 7
  21986362.626    21986364.752    47754935.768 9 -61177418.325 9
  22379213.473    22379215.067    75683584.451 9 -83613241.132 9
  24322585.293    24322585.973    14944107.215 9 -40655288.970 8
 86  6 14  4 41 41.0800000  0  3G12G13G 7
  21989455.443    21989456.609    47771186.700 9 -61164755.270 8
  22381018.179    22381019.113    75693063.747 9 -83605854.663 9
                  24322499.210                   -40655641.627 7
 86  6 14  4 41 47.0800000  0  3G12G13G 7
  21992551.588    21992550.996    47787454.125 9 -61152079.357 8
  22382821.009    22382822.558    75702544.229 9 -83598467.278 8
  24322390.023    24322419.371    14907186.144 9 -40655968.480 7
 86  6 14  4 41 53.0800000  0  3G12G13G 7
  21995649.932    21995650.220    47803737.902 9 -61139390.698 8
  22384625.813    22384627.290    75712025.875 9 -83591078.990 8
  24322346.758    24322346.997    14906804.402 9 -40656265.963 9
 86  6 14  4 41 59.0800000  0  3G12G13G 7
  21998751.972    21998752.723    47820037.911 9 -61126689.390 8
  22386430.300    22386431.882    75721508.599 9 -83583689.848 8
  24322280.148    24322280.684    14906458.894 9 -40656535.189 8
 86  6 14  4 42  5.0800000  0  3G12G13G 7
  22001856.200    22001856.592    47836354.205 9 -61113975.388 8
  22388235.651    22388237.071    75730992.489 8 -83576299.803 8
  24322221.415    24322221.864    14906145.469 9 -40656779.412 8
 86  6 14  4 42 11.0800000  0  3G12G13G 7
  22004963.202    22004965.087    47852686.790 9 -61101248.712 8
  22390040.038    22390042.147    75740477.485 9 -83568908.909 8
  24322167.426    24322168.041    14905859.565 9 -40657002.194 8
 86  6 14  4 42 17.0800000  0  3G12G13G 7
  22008074.405    22008077.072    47869035.704 9 -61088509.296 9
  22391845.113    22391846.563    75749963.657 9 -83561517.082 8
  24322117.850    24322118.209    14905597.858 9 -40657206.126 9
 86  6 14  4 42 23.0800000  0  3G12G13G 7
  22011189.019    22011190.813    47885400.797 9 -61075757.287 8
  22393651.018    22393651.697    75759450.880 9 -83554124.441 8
  24322072.140    24322072.141    14905358.117 9 -40657392.937 8
 86  6 14  4 42 29.0800000  0  3G12G13G 7
  22014305.790    22014307.203    47901782.024 9 -61062992.693 9
  22395456.839    22395457.032    75768939.172 9 -83546730.947 8
  24322031.273    24322030.993    14905138.893 9 -40657563.770 8
 86  6 14  4 42 35.0800000  0  3G12G13G 7
  22017426.610    22017428.100    47918179.382 9 -61050215.532 8
  22397262.058    22397262.593    75778428.606 9 -83539336.600 9
  24321993.331    24321993.582    14904941.129 9 -40657717.871 8
 86  6 14  4 42 41.0800000  0  3G12G13G 7
  22020550.067    22020551.984    47934592.910 9 -61037425.768 8
  22399068.522    22399069.788    75787919.213 9 -83531941.322 8
                  24321960.319                   -40657851.361 8
 86  6 14  4 42 47.0800000  0  3G12G13G 7
  22023676.786    22023677.984    47951022.586 9 -61024623.425 8
  22400874.414    22400874.292    75797410.964 9 -83524545.151 8
  24321911.381    24321933.417    14868536.026 9 -40657959.028 8
 86  6 14  4 42 53.0800000  0  3G12G13G 7
  22026805.713    22026807.568    47967468.297 9 -61011808.587 8
  22402680.964    22402681.600    75806903.769 9 -83517148.156 9
  24321915.466    24321915.223    14868435.472 9 -40658037.461 7
 86  6 14  4 42 59.0800000  0  3G12G13G 7
  22029938.832    22029940.470    47983930.070 9 -60998981.237 8
  22404487.313    22404488.765    75816397.697 9 -83509750.286 9
  24321903.103    24321903.210    14868370.491 9 -40658087.708 9
 86  6 14  4 43  5.0800000  0  3G12G13G 7
  22033073.503    22033075.986    48000407.945 9 -60986141.346 9
  22406294.134    22406295.671    75825892.749 9 -83502351.545 8
  24321896.642    24321897.362    14868337.979 9 -40658113.052 8
 86  6 14  4 43 11.0800000  0  3G12G13G 7
  22036212.893    22036214.365    48016901.781 9 -60973289.011 8
  22408100.485    22408101.949    75835388.768 9 -83494952.054 9
  24321895.925    24321896.547    14868332.824 9 -40658117.060 9
 86  6 14  4 43 17.0800000  0  3G12G13G 7
  22039355.249    22039356.635    48033411.732 9 -60960424.105 7
  22409908.209    22409909.344    75844885.990 9 -83487551.619 9
  24321899.381    24321899.781    14868351.875 9 -40658102.224 8
 86  6 14  4 43 23.0800000  0  3G12G13G 7
  22042499.324    22042501.714    48049937.685 9 -60947546.747 9
  22411715.473    22411717.999    75854384.397 9 -83480150.258 8
  24321907.373    24321907.373    14868392.764 9 -40658070.357 8
 86  6 14  4 43 29.0800000  0  3G12G13G 7
  22045647.261    22045649.213    48066479.494 9 -60934657.030 8
  22413522.767    22413524.876    75863883.815 9 -83472748.112 8
  24321918.226    24321919.377    14868454.037 9 -40658022.625 8
 86  6 14  4 43 35.0800000  0  3G12G13G 7
  22048797.687    22048801.226    48083037.115 9 -60921754.994 7
  22415330.948    22415333.414    75873384.340 9 -83465345.103 8
  24321933.922    24321935.324    14868536.762 9 -40657958.150 8
 86  6 14  4 43 41.0800000  0  3G12G13G 7
  22051951.690    22051954.804    48099610.506 9 -60908840.665 7
  22417139.774    22417140.895    75882885.847 9 -83457941.338 8
                  24321956.143                   -40657873.078 8
 86  6 14  4 43 47.0800000  0  3G12G13G 7
  22055108.376    22055109.985    48116199.815 9 -60895913.930 8
  22418947.983    22418949.749    75892388.500 9 -83450536.663 8
  24321976.174    24321983.601    14832168.609 9 -40657761.827 7
 86  6 14  4 43 53.0800000  0  3G12G13G 7
  22058269.009    22058270.681    48132804.991 9 -60882974.835 8
  22420756.665    22420757.627    75901892.347 9 -83443131.074 8
  24322015.933    24322018.152    14832348.805 9 -40657621.125 9
 86  6 14  4 43 59.0800000  0  3G12G13G 7
  22061431.397    22061432.853    48149426.041 9 -60870023.365 8
  22422565.791    22422566.025    75911397.444 9 -83435724.495 9
  24322057.157    24322057.637    14832565.381 9 -40657452.359 8
 86  6 14  4 44  5.0800000  0  3G12G13G 7
  22064597.316    22064599.343    48166062.885 9 -60857059.608 8
  22424374.687    22424375.051    75920903.684 9 -83428317.038 8
  24322104.821    24322105.122    14832814.147 9 -40657258.908 8
 86  6 14  4 44 11.0800000  0  3G12G13G 7
  22067766.519    22067767.909    48182715.485 9 -60844083.553 9
  22426183.355    22426184.475    75930411.118 9 -83420908.645 8
  24322156.847    24322159.554    14833089.728 9 -40657044.171 8
 86  6 14  4 44 17.0800000  0  3G12G13G 7
  22070938.752    22070940.450    48199383.728 9 -60831095.315 7
  22427993.010    22427994.103    75939919.598 9 -83413499.448 8
  24322213.012    24322215.715    14833389.213 9 -40656810.806 9
 86  6 14  4 44 23.0800000  0  3G12G13G 7
  22074113.483    22074114.830    48216067.632 9 -60818094.872 8
  22429802.848    22429804.358    75949429.148 9 -83406089.405 8
  24322274.656    24322276.459    14833710.423 9 -40656560.523 9
 86  6 14  4 44 29.0800000  0  3G12G13G 7
  22077291.844    22077292.779    48232767.180 9 -60805082.255 8
  22431611.805    22431613.181    75958939.842 9 -83398678.470 9
  24322340.685    24322341.424    14834052.028 9 -40656294.331 9
 86  6 14  4 44 35.0800000  0  3G12G13G 7
  22080471.840    22080473.605    48249482.351 9 -60792057.446 7
  22433422.376    22433423.380    75968451.613 9 -83391266.703 9
  24322409.090    24322410.671    14834415.147 9 -40656011.372 8
 86  6 14  4 44 41.0800000  0  3G12G13G 7
  22083656.096    22083656.754    48266213.213 9 -60779020.422 8
  22435232.702    22435233.350    75977964.618 9 -83383853.983 8
                  24322484.739                   -40655707.495 7
 86  6 14  4 44 47.0800000  0  3G12G13G 7
  22086843.523    22086844.369    48282959.676 9 -60765971.228 8
  22437043.500    22437043.635    75987478.766 9 -83376440.348 8
  24322527.798    24322564.444    14798568.689 9 -40655377.308 9
 86  6 14  4 44 53.0800000  0  3G12G13G 7
  22090032.241    22090034.473    48299721.659 9 -60752909.943 8
  22438853.213    22438855.065    75996994.091 9 -83369025.816 8
  24322651.256    24322652.603    14799030.173 9 -40655017.858 8
 86  6 14  4 44 59.0800000  0  3G12G13G 7
  22093225.150    22093227.062    48316499.188 9 -60739836.549 8
  22440665.315    22440667.037    76006510.467 9 -83361610.463 9
  24322746.626    24322748.289    14799527.124 9 -40654630.612 8
 86  6 14  4 45  5.0800000  0  3G12G13G 7
  22096419.763    22096421.667    48333292.193 9 -60726751.092 8
  22442475.686    22442477.636    76016027.806 9 -83354194.342 8
  24322846.662    24322848.400    14800055.632 9 -40654218.790 9
 86  6 14  4 45 11.0800000  0  3G12G13G 7
  22099619.147    22099620.392    48350100.659 9 -60713653.590 8
  22444286.399    22444287.894    76025546.237 9 -83346777.383 9
  24322952.264    24322954.252    14800611.116 9 -40653785.943 8
 86  6 14  4 45 17.0800000  0  3G12G13G 7
  22102820.054    22102822.333    48366924.548 9 -60700544.080 8
  22446098.687    22446100.065    76035065.783 9 -83339359.558 8
  24323062.822    24323063.273    14801190.613 9 -40653334.390 9
 86  6 14  4 45 23.0800000  0  3G12G13G 7
  22106024.732    22106027.247    48383763.879 9 -60687422.527 9
  22447910.059    22447912.554    76044586.443 9 -83331940.865 9
  24323176.939    24323178.141    14801791.842 9 -40652865.899 9
 86  6 14  4 45 29.0800000  0  3G12G13G 7
  22109232.768    22109233.046    48400618.602 9 -60674288.981 8
  22449720.930    22449723.210    76054108.205 9 -83324521.307 9
  24323295.254    24323296.904    14802413.433 9 -40652381.551 9
 86  6 14  4 45 35.0800000  0  3G12G13G 7
  22112442.340    22112443.515    48417488.674 9 -60661143.479 8
  22451533.548    22451536.215    76063631.024 9 -83317100.922 9
  24323418.305    24323419.034    14803056.556 9 -40651880.413 8
 86  6 14  4 45 41.0800000  0  3G12G13G 7
  22115655.672    22115657.212    48434374.031 9 -60647986.056 8
  22453346.022    22453348.958    76073154.912 9 -83309679.717 8
                  24323545.652                   -40651358.287 8
 86  6 14  4 45 47.0800000  0  3G12G13G 7
  22118871.072    22118873.106    48451274.631 9 -60634816.769 8
  22455158.696    22455160.589    76082679.894 9 -83302257.648 8
  24323679.262    24323681.450    14767254.633 8 -40650809.718 8
 86  6 14  4 45 53.0800000  0  3G12G13G 7
  22122089.951    22122091.868    48468190.590 9 -60621635.494 8
  22456971.943    22456973.793    76092206.042 9 -83294834.674 9
  24323821.007    24323821.694    14767996.363 9 -40650231.736 8
 86  6 14  4 45 59.0800000  0  3G12G13G 7
  22125312.649    22125313.876    48485121.789 9 -60608442.348 8
  22458785.204    22458786.337    76101733.372 9 -83287410.782 8
  24323968.892    24323969.442    14768773.814 9 -40649625.931 8
 86  6 14  4 46  5.0800000  0  3G12G13G 7
  22128537.639    22128538.335    48502068.242 9 -60595237.324 8
  22460597.877    22460600.113    76111261.915 9 -83279985.944 9
  24324122.630    24324123.237    14769582.661 9 -40648995.663 8
 86  6 14  4 46 11.0800000  0  3G12G13G 7
  22131764.458    22131767.502    48519029.962 9 -60582020.397 7
  22462411.753    22462412.947    76120791.535 9 -83272560.259 8
  24324282.226    24324282.587    14770418.365 9 -40648344.461 8
 86  6 14  4 46 17.0800000  0  3G12G13G 7
  22134995.040    22134997.701    48536006.857 9 -60568791.645 8
  22464225.444    22464226.723    76130322.232 9 -83265133.751 8
  24324445.215    24324446.001    14771277.775 9 -40647674.788 8
 86  6 14  4 46 23.0800000  0  3G12G13G 7
  22138229.177    22138231.484    48552998.911 9 -60555551.109 8
  22466039.362    22466040.556    76139853.898 9 -83257706.466 8
  24324612.854    24324613.891    14772158.750 9 -40646988.320 8
 86  6 14  4 46 29.0800000  0  3G12G13G 7
  22141465.081    22141467.311    48570006.063 9 -60542298.778 8
  22467852.809    22467854.760    76149386.657 9 -83250278.347 8
  24324784.050    24324784.615    14773059.980 9 -40646286.058 9
 86  6 14  4 46 35.0800000  0  3G12G13G 7
  22144704.380    22144706.667    48587028.341 9 -60529034.667 7
  22469666.500    22469668.996    76158920.472 9 -83242849.409 8
  24324960.459    24324960.838    14773982.903 9 -40645566.908 9
 86  6 14  4 46 41.0800000  0  3G12G13G 7
  22147946.494    22147948.775    48604065.786 9 -60515758.734 7
  22471481.792    22471482.112    76168455.513 9 -83235419.507 8
                  24325141.923                   -40644826.428 8
 86  6 14  4 46 47.0800000  0  3G12G13G 7
  22151191.517    22151194.099    48621118.257 9 -60502471.108 8
  22473295.870    22473296.948    76177991.649 9 -83227988.733 9
  24325329.337    24325328.302    14738455.150 9 -40644059.320 7
 86  6 14  4 46 53.0800000  0  3G12G13G 7
  22154439.090    22154442.143    48638185.736 9 -60489171.774 9
  22475111.059    22475111.637    76187528.984 9 -83220557.051 9
  24325523.326    24325522.852    14739477.288 9 -40643262.840 7
 86  6 14  4 46 59.0800000  0  3G12G13G 7
  22157689.569    22157692.198    48655268.331 9 -60475860.665 8
  22476926.025    22476928.194    76197067.498 9 -83213124.442 8
  24325724.074    24325724.217    14740534.522 9 -40642438.641 9
 86  6 14  4 47  5.0800000  0  3G12G13G 7
  22160943.307    22160945.659    48672365.753 9 -60462537.984 8
  22478741.604    22478742.426    76206606.955 9 -83205691.091 8
  24325931.084    24325932.387    14741623.249 9 -40641590.271 8
 86  6 14  4 47 11.0800000  0  3G12G13G 7
  22164199.986    22164201.397    48689478.095 9 -60449203.695 8
  22480557.325    22480557.689    76216147.502 9 -83198256.895 9
  24326143.840    24326144.592    14742738.567 9 -40640721.197 8
 86  6 14  4 47 17.0800000  0  3G12G13G 7
  22167458.628    22167462.193    48706605.393 9 -60435857.754 9
  22482373.492    22482374.010    76225689.233 9 -83190821.775 8
  24326359.966    24326361.203    14743877.631 9 -40639833.616 9
 86  6 14  4 47 23.0800000  0  3G12G13G 7
  22170720.677    22170724.038    48723747.645 9 -60422500.160 8
  22484189.183    22484190.277    76235232.187 9 -83183385.718 8
  24326580.600    24326581.438    14745038.223 9 -40638929.267 9
 86  6 14  4 47 29.0800000  0  3G12G13G 7
  22173985.977    22173988.733    48740904.738 9 -60409131.000 8
  22486005.337    22486006.916    76244776.212 9 -83175948.813 8
  24326805.410    24326806.519    14746218.998 9 -40638009.171 8
 86  6 14  4 47 35.0800000  0  3G12G13G 7
  22177253.950    22177256.871    48758076.695 9 -60395750.251 8
  22487821.716    22487821.836    76254321.357 9 -83168511.031 8
  24327034.450    24327035.086    14747421.478 9 -40637072.190 9
 86  6 14  4 47 41.0800000  0  3G12G13G 7
  22180524.365    22180527.159    48775263.372 9 -60382358.037 8
  22489638.168    22489639.216    76263867.591 9 -83161072.408 8
                  24327268.514                   -40636113.852 8
 86  6 14  4 47 47.0800000  0  3G12G13G 7
  22183797.465    22183799.537    48792464.856 9 -60368954.290 8
  22491454.933    22491455.885    76273414.987 8 -83153632.872 9
  24327509.365    24327510.808    14712169.123 6 -40635128.684 8
 86  6 14  4 47 53.0800000  0  3G12G13G 7
  22187073.721    22187076.411    48809681.088 8 -60355539.035 8
  22493271.144    22493273.694    76282963.588 9 -83146192.409 8
  24327757.222    24327758.573    14713471.071 9 -40634114.195 8
